Find Starlink 32600

NORAD ID: 62178 Int'l Des: 2024-225 Owner: SPXS Country: US Constellation: starlink operational
LEOCIRCULAR

Current View

Loading 3D Globe...

About Starlink 32600

Starlink 32600 (NORAD 62178) is a starlink constellation satellite (v2 mini) launched Nov 30, 2024 by SPXS of US. It operates in LEO, CIRCULAR orbit with a mass of 730.00 kg.

About Starlink 32600

Description loading...

Upcoming Passes

Passes for default location (London). Set your location on the main map for personalized predictions.

Altitude History

Loading altitude history...

Two-Line Element Set

1 62178U 24225R 26170.64229963 .00002639 00000-0 22882-3 0 9991
2 62178 70.0004 257.5037 0003617 268.2468 91.8277 14.98335366 85396
Epoch: Jun 19, 2026 • Age: 18 hours

Current Status

Altitude 580.2 km
Velocity 7.57 km/s
Sub-Earth Point 44.88°N, 130.67°W
Launch Date Nov 30, 2024
Age 1.5 years
Type internet

Technical Details

Classification Payload
Mass 730.00 kg
Dry Mass 700.00 kg
Total Mass 730.00 kg
Length 0.30 m
Diameter 4.10 m
Span 29.00 m
Shape Box + pan
Manufacturer SPXS
Bus Type Starlink V2M
Phase Status In Orbit
Owner/State SPXS/US

Most Searched